Time,TemperatureF,DewpointF,PressureIn,WindDirection,WindDirectionDegrees,WindSpeedMPH,WindSpeedGustMPH,Humidity,HourlyPrecipIn,Conditions,Clouds,dailyrainin,SoftwareType,DateUTC
2013-03-30 00:00:00,40.3,32.0,30.00,NNW,337,1.0,5.0,72,0.00,,,0.00,Wunderground v.1.15,2013-03-30 04:00:00,
2013-03-30 00:05:00,40.2,31.9,30.00,NNW,337,0.0,5.0,72,0.00,,,0.00,Wunderground v.1.15,2013-03-30 04:05:00,
2013-03-30 00:10:00,40.1,32.1,29.99,NNW,337,0.0,5.0,73,0.00,,,0.00,Wunderground v.1.15,2013-03-30 04:10:00,
2013-03-30 00:15:00,40.0,32.0,30.00,NNW,337,0.0,5.0,73,0.00,,,0.00,Wunderground v.1.15,2013-03-30 04:15:00,
2013-03-30 00:20:00,40.0,32.0,30.00,NNW,342,1.0,1.0,73,0.00,,,0.00,Wunderground v.1.15,2013-03-30 04:20:00,
2013-03-30 00:25:00,40.0,31.7,29.99,WSW,243,1.0,5.0,72,0.00,,,0.00,Wunderground v.1.15,2013-03-30 04:25:00,
2013-03-30 00:35:00,40.0,32.0,29.99,NNW,329,1.0,3.0,73,0.00,,,0.00,Wunderground v.1.15,2013-03-30 04:35:00,
2013-03-30 00:40:00,40.0,31.7,30.00,NW,315,2.0,2.0,72,0.00,,,0.00,Wunderground v.1.15,2013-03-30 04:40:00,
2013-03-30 00:45:00,40.0,32.0,30.00,NW,320,2.0,5.0,73,0.00,,,0.00,Wunderground v.1.15,2013-03-30 04:45:00,
2013-03-30 00:50:00,40.1,31.8,30.00,NNW,336,2.0,5.0,72,0.00,,,0.00,Wunderground v.1.15,2013-03-30 04:50:00,
2013-03-30 01:00:00,39.6,32.0,30.00,WNW,284,3.0,5.0,74,0.00,,,0.00,Wunderground v.1.15,2013-03-30 05:00:00,
2013-03-30 01:05:00,39.3,32.0,30.00,NW,314,4.0,5.0,75,0.00,,,0.00,Wunderground v.1.15,2013-03-30 05:05:00,
2013-03-30 01:10:00,38.8,31.9,30.00,NW,315,3.0,3.0,76,0.00,,,0.00,Wunderground v.1.15,2013-03-30 05:10:00,
2013-03-30 01:15:00,38.4,32.1,30.00,NW,315,2.0,5.0,78,0.00,,,0.00,Wunderground v.1.15,2013-03-30 05:15:00,
2013-03-30 01:20:00,38.0,32.1,30.00,NW,315,2.0,5.0,79,0.00,,,0.00,Wunderground v.1.15,2013-03-30 05:20:00,
2013-03-30 01:25:00,38.2,31.9,29.99,NW,315,3.0,5.0,78,0.00,,,0.00,Wunderground v.1.15,2013-03-30 05:25:00,
2013-03-30 01:30:00,38.4,31.8,29.99,NW,314,3.0,5.0,77,0.00,,,0.00,Wunderground v.1.15,2013-03-30 05:30:00,
2013-03-30 01:35:00,38.5,31.9,29.99,NW,315,3.0,5.0,77,0.00,,,0.00,Wunderground v.1.15,2013-03-30 05:35:00,
2013-03-30 01:40:00,38.5,31.9,29.99,NW,309,4.0,4.0,77,0.00,,,0.00,Wunderground v.1.15,2013-03-30 05:40:00,
2013-03-30 01:45:00,38.4,31.8,30.00,NW,309,2.0,5.0,77,0.00,,,0.00,Wunderground v.1.15,2013-03-30 05:45:00,
2013-03-30 01:50:00,38.2,31.9,30.00,NW,310,1.0,5.0,78,0.00,,,0.00,Wunderground v.1.15,2013-03-30 05:50:00,
2013-03-30 01:55:00,38.2,31.9,29.99,NW,312,2.0,5.0,78,0.00,,,0.00,Wunderground v.1.15,2013-03-30 05:55:00,
2013-03-30 02:00:00,38.1,31.8,30.00,NW,312,3.0,3.0,78,0.00,,,0.00,Wunderground v.1.15,2013-03-30 06:00:00,
2013-03-30 02:10:00,38.3,32.0,29.99,NW,314,3.0,3.0,78,0.00,,,0.00,Wunderground v.1.15,2013-03-30 06:10:00,
2013-03-30 02:20:00,39.0,32.1,29.99,NW,317,3.0,5.0,76,0.00,,,0.00,Wunderground v.1.15,2013-03-30 06:20:00,
2013-03-30 02:25:00,39.0,32.1,29.99,NW,315,3.0,5.0,76,0.00,,,0.00,Wunderground v.1.15,2013-03-30 06:25:00,
2013-03-30 02:30:00,39.1,32.2,29.99,NW,313,4.0,5.0,76,0.00,,,0.00,Wunderground v.1.15,2013-03-30 06:30:00,
2013-03-30 02:35:00,39.1,32.5,30.00,NW,315,4.0,5.0,77,0.00,,,0.00,Wunderground v.1.15,2013-03-30 06:35:00,
2013-03-30 02:40:00,39.2,32.6,29.99,NNW,331,5.0,5.0,77,0.00,,,0.00,Wunderground v.1.15,2013-03-30 06:40:00,
2013-03-30 02:50:00,39.2,32.6,29.99,NW,304,5.0,5.0,77,0.00,,,0.00,Wunderground v.1.15,2013-03-30 06:50:00,
2013-03-30 02:55:00,39.3,32.4,30.00,WNW,302,5.0,5.0,76,0.00,,,0.00,Wunderground v.1.15,2013-03-30 06:55:00,
2013-03-30 03:00:00,39.3,32.4,29.99,NW,309,5.0,5.0,76,0.00,,,0.00,Wunderground v.1.15,2013-03-30 07:00:00,
2013-03-30 03:05:00,39.1,32.5,29.99,NNW,331,5.0,5.0,77,0.00,,,0.00,Wunderground v.1.15,2013-03-30 07:05:00,
2013-03-30 03:10:00,39.0,32.4,29.99,NW,325,4.0,5.0,77,0.00,,,0.00,Wunderground v.1.15,2013-03-30 07:10:00,
2013-03-30 03:20:00,38.9,32.3,29.99,NW,313,5.0,7.0,77,0.00,,,0.00,Wunderground v.1.15,2013-03-30 07:20:00,
2013-03-30 03:30:00,39.4,32.1,29.99,WNW,290,4.0,4.0,75,0.00,,,0.00,Wunderground v.1.15,2013-03-30 07:30:00,
2013-03-30 03:35:00,39.7,32.1,29.99,NW,312,3.0,5.0,74,0.00,,,0.00,Wunderground v.1.15,2013-03-30 07:35:00,
2013-03-30 03:40:00,39.9,31.9,29.98,West,280,4.0,5.0,73,0.00,,,0.00,Wunderground v.1.15,2013-03-30 07:40:00,
2013-03-30 03:45:00,39.9,31.9,29.99,WSW,255,4.0,5.0,73,0.00,,,0.00,Wunderground v.1.15,2013-03-30 07:45:00,
2013-03-30 03:50:00,39.9,31.9,29.99,NNW,327,5.0,5.0,73,0.00,,,0.00,Wunderground v.1.15,2013-03-30 07:50:00,
2013-03-30 03:55:00,39.7,32.1,29.99,NW,326,5.0,5.0,74,0.00,,,0.00,Wunderground v.1.15,2013-03-30 07:55:00,
2013-03-30 04:00:00,39.6,32.0,29.99,NW,322,4.0,5.0,74,0.00,,,0.00,Wunderground v.1.15,2013-03-30 08:00:00,
2013-03-30 04:05:00,39.7,32.1,29.99,West,280,4.0,7.0,74,0.00,,,0.00,Wunderground v.1.15,2013-03-30 08:05:00,
2013-03-30 04:10:00,39.8,31.8,29.99,WNW,286,5.0,8.0,73,0.00,,,0.00,Wunderground v.1.15,2013-03-30 08:10:00,
2013-03-30 04:15:00,40.0,32.0,29.99,NW,306,5.0,8.0,73,0.00,,,0.00,Wunderground v.1.15,2013-03-30 08:15:00,
2013-03-30 04:20:00,40.0,31.7,29.99,NW,319,5.0,5.0,72,0.00,,,0.00,Wunderground v.1.15,2013-03-30 08:20:00,
2013-03-30 04:30:00,40.0,31.7,29.99,NW,306,5.0,6.0,72,0.00,,,0.00,Wunderground v.1.15,2013-03-30 08:30:00,
2013-03-30 04:40:00,40.1,31.4,29.99,NW,315,5.0,12.0,71,0.00,,,0.00,Wunderground v.1.15,2013-03-30 08:40:00,
2013-03-30 04:45:00,40.2,31.5,29.99,WNW,289,5.0,12.0,71,0.00,,,0.00,Wunderground v.1.15,2013-03-30 08:45:00,
2013-03-30 04:50:00,40.1,31.4,29.99,NNW,328,5.0,5.0,71,0.00,,,0.00,Wunderground v.1.15,2013-03-30 08:50:00,
2013-03-30 04:55:00,40.1,31.4,29.99,West,266,5.0,5.0,71,0.00,,,0.00,Wunderground v.1.15,2013-03-30 08:55:00,
2013-03-30 05:05:00,40.0,31.0,29.99,West,276,5.0,5.0,70,0.00,,,0.00,Wunderground v.1.15,2013-03-30 09:05:00,
2013-03-30 05:10:00,40.0,31.4,29.99,NNW,338,6.0,6.0,71,0.00,,,0.00,Wunderground v.1.15,2013-03-30 09:10:00,
2013-03-30 05:15:00,40.0,31.0,29.99,WNW,292,7.0,7.0,70,0.00,,,0.00,Wunderground v.1.15,2013-03-30 09:15:00,
2013-03-30 05:20:00,40.0,31.4,29.99,NW,319,7.0,7.0,71,0.00,,,0.00,Wunderground v.1.15,2013-03-30 09:20:00,
2013-03-30 05:25:00,39.9,31.3,29.99,NNW,338,6.0,6.0,71,0.00,,,0.00,Wunderground v.1.15,2013-03-30 09:25:00,
2013-03-30 05:35:00,39.8,31.2,29.99,NNW,330,6.0,6.0,71,0.00,,,0.00,Wunderground v.1.15,2013-03-30 09:35:00,
2013-03-30 05:40:00,39.9,31.3,29.99,NW,323,6.0,6.0,71,0.00,,,0.00,Wunderground v.1.15,2013-03-30 09:40:00,
2013-03-30 05:45:00,39.8,30.8,29.99,WNW,302,6.0,6.0,70,0.00,,,0.00,Wunderground v.1.15,2013-03-30 09:45:00,
2013-03-30 05:50:00,39.7,31.1,30.00,NW,317,6.0,6.0,71,0.00,,,0.00,Wunderground v.1.15,2013-03-30 09:50:00,
2013-03-30 05:55:00,39.7,31.1,30.00,NW,305,6.0,6.0,71,0.00,,,0.00,Wunderground v.1.15,2013-03-30 09:55:00,
2013-03-30 06:00:00,39.6,31.3,30.00,WNW,285,6.0,6.0,72,0.00,,,0.00,Wunderground v.1.15,2013-03-30 10:00:00,
2013-03-30 06:10:00,39.5,30.5,30.00,NW,311,4.0,5.0,70,0.00,,,0.00,Wunderground v.1.15,2013-03-30 10:10:00,
2013-03-30 06:20:00,39.6,30.6,30.00,NNW,341,5.0,8.0,70,0.00,,,0.00,Wunderground v.1.15,2013-03-30 10:20:00,
2013-03-30 06:25:00,39.6,30.6,30.00,NW,313,4.0,8.0,70,0.00,,,0.00,Wunderground v.1.15,2013-03-30 10:25:00,
2013-03-30 06:30:00,39.7,30.4,30.00,NW,319,5.0,7.0,69,0.00,,,0.00,Wunderground v.1.15,2013-03-30 10:30:00,
2013-03-30 06:35:00,39.7,30.0,30.00,WSW,250,6.0,7.0,68,0.00,,,0.00,Wunderground v.1.15,2013-03-30 10:35:00,
2013-03-30 06:40:00,39.8,30.1,30.00,NW,313,6.0,7.0,68,0.00,,,0.00,Wunderground v.1.15,2013-03-30 10:40:00,
2013-03-30 06:45:00,39.8,30.1,30.00,NW,309,5.0,7.0,68,0.00,,,0.00,Wunderground v.1.15,2013-03-30 10:45:00,
2013-03-30 06:50:00,39.8,30.1,30.00,NW,314,5.0,5.0,68,0.00,,,0.00,Wunderground v.1.15,2013-03-30 10:50:00,
2013-03-30 06:55:00,39.7,30.0,30.00,NW,323,4.0,9.0,68,0.00,,,0.00,Wunderground v.1.15,2013-03-30 10:55:00,
2013-03-30 07:00:00,39.6,30.3,30.00,NW,316,3.0,6.0,69,0.00,,,0.00,Wunderground v.1.15,2013-03-30 11:00:00,
2013-03-30 07:05:00,39.5,29.8,30.01,NNW,334,4.0,6.0,68,0.00,,,0.00,Wunderground v.1.15,2013-03-30 11:05:00,
2013-03-30 07:10:00,39.5,30.2,30.01,SW,221,4.0,4.0,69,0.00,,,0.00,Wunderground v.1.15,2013-03-30 11:10:00,
2013-03-30 07:15:00,39.5,30.2,30.01,NNW,341,3.0,5.0,69,0.00,,,0.00,Wunderground v.1.15,2013-03-30 11:15:00,
2013-03-30 07:20:00,39.3,30.3,30.01,NW,314,3.0,5.0,70,0.00,,,0.00,Wunderground v.1.15,2013-03-30 11:20:00,
2013-03-30 07:25:00,39.3,30.0,30.01,NW,309,3.0,7.0,69,0.00,,,0.00,Wunderground v.1.15,2013-03-30 11:25:00,
2013-03-30 07:35:00,39.4,30.4,30.01,NW,315,4.0,5.0,70,0.00,,,0.00,Wunderground v.1.15,2013-03-30 11:35:00,
2013-03-30 07:40:00,39.5,30.2,30.02,NW,317,4.0,4.0,69,0.00,,,0.00,Wunderground v.1.15,2013-03-30 11:40:00,
2013-03-30 07:45:00,39.6,30.3,30.02,NW,325,4.0,5.0,69,0.00,,,0.00,Wunderground v.1.15,2013-03-30 11:45:00,
2013-03-30 07:55:00,40.0,30.3,30.02,NW,317,6.0,6.0,68,0.00,,,0.00,Wunderground v.1.15,2013-03-30 11:55:00,
2013-03-30 08:00:00,39.9,30.5,30.02,West,263,7.0,7.0,69,0.00,,,0.00,Wunderground v.1.15,2013-03-30 12:00:00,
2013-03-30 08:05:00,40.0,30.6,30.02,NW,325,6.0,7.0,69,0.00,,,0.00,Wunderground v.1.15,2013-03-30 12:05:00,
2013-03-30 08:10:00,39.9,30.5,30.02,NW,313,5.0,7.0,69,0.00,,,0.00,Wunderground v.1.15,2013-03-30 12:10:00,
2013-03-30 08:15:00,39.9,30.5,30.02,NW,310,6.0,8.0,69,0.00,,,0.00,Wunderground v.1.15,2013-03-30 12:15:00,
2013-03-30 08:20:00,39.8,30.5,30.02,NNW,330,7.0,7.0,69,0.00,,,0.00,Wunderground v.1.15,2013-03-30 12:20:00,
2013-03-30 08:25:00,39.7,30.4,30.02,NW,323,8.0,9.0,69,0.00,,,0.00,Wunderground v.1.15,2013-03-30 12:25:00,
2013-03-30 08:30:00,39.7,30.7,30.03,NW,319,8.0,9.0,70,0.00,,,0.00,Wunderground v.1.15,2013-03-30 12:30:00,
2013-03-30 08:35:00,39.5,30.5,30.03,NNW,338,8.0,9.0,70,0.00,,,0.00,Wunderground v.1.15,2013-03-30 12:35:00,
2013-03-30 08:40:00,39.4,30.4,30.02,NW,321,8.0,11.0,70,0.00,,,0.00,Wunderground v.1.15,2013-03-30 12:40:00,
2013-03-30 08:50:00,39.1,30.5,30.03,NW,306,7.0,7.0,71,0.00,,,0.00,Wunderground v.1.15,2013-03-30 12:50:00,
2013-03-30 09:00:00,39.4,30.4,30.03,WNW,302,7.0,8.0,70,0.00,,,0.00,Wunderground v.1.15,2013-03-30 13:00:00,
2013-03-30 09:05:00,39.6,30.3,30.03,NW,313,8.0,9.0,69,0.00,,,0.00,Wunderground v.1.15,2013-03-30 13:05:00,
2013-03-30 09:10:00,39.4,30.8,30.03,NW,308,8.0,8.0,71,0.00,,,0.00,Wunderground v.1.15,2013-03-30 13:10:00,
2013-03-30 09:15:00,39.4,30.4,30.03,NNW,343,7.0,9.0,70,0.00,,,0.00,Wunderground v.1.15,2013-03-30 13:15:00,
2013-03-30 09:20:00,39.5,30.5,30.03,NW,311,7.0,11.0,70,0.00,,,0.00,Wunderground v.1.15,2013-03-30 13:20:00,
2013-03-30 09:25:00,39.8,30.5,30.03,NW,319,7.0,11.0,69,0.00,,,0.00,Wunderground v.1.15,2013-03-30 13:25:00,
2013-03-30 09:35:00,39.4,31.1,30.03,NW,314,7.0,8.0,72,0.00,,,0.00,Wunderground v.1.15,2013-03-30 13:35:00,
2013-03-30 09:40:00,39.4,30.8,30.03,NW,312,7.0,7.0,71,0.00,,,0.00,Wunderground v.1.15,2013-03-30 13:40:00,
2013-03-30 09:45:00,39.6,31.0,30.03,NW,325,6.0,7.0,71,0.00,,,0.00,Wunderground v.1.15,2013-03-30 13:45:00,
2013-03-30 09:55:00,39.9,30.5,30.03,NW,313,7.0,7.0,69,0.00,,,0.00,Wunderground v.1.15,2013-03-30 13:55:00,
2013-03-30 10:00:00,40.1,30.7,30.02,NNW,327,7.0,7.0,69,0.00,,,0.00,Wunderground v.1.15,2013-03-30 14:00:00,
2013-03-30 10:10:00,40.3,30.2,30.02,NW,308,7.0,10.0,67,0.00,,,0.00,Wunderground v.1.15,2013-03-30 14:10:00,
2013-03-30 10:15:00,40.5,30.0,30.02,NW,311,7.0,10.0,66,0.00,,,0.00,Wunderground v.1.15,2013-03-30 14:15:00,
2013-03-30 10:20:00,40.7,30.2,30.02,NW,304,7.0,8.0,66,0.00,,,0.00,Wunderground v.1.15,2013-03-30 14:20:00,
2013-03-30 10:25:00,40.7,29.8,30.02,NW,318,7.0,8.0,65,0.00,,,0.00,Wunderground v.1.15,2013-03-30 14:25:00,
2013-03-30 10:30:00,40.7,30.2,30.02,NNW,333,6.0,6.0,66,0.00,,,0.00,Wunderground v.1.15,2013-03-30 14:30:00,
2013-03-30 10:35:00,40.9,30.0,30.02,NNW,333,6.0,6.0,65,0.00,,,0.00,Wunderground v.1.15,2013-03-30 14:35:00,
2013-03-30 10:40:00,41.1,30.6,30.02,NW,324,5.0,6.0,66,0.00,,,0.00,Wunderground v.1.15,2013-03-30 14:40:00,
2013-03-30 10:50:00,41.3,29.6,30.02,NW,323,4.0,5.0,63,0.00,,,0.00,Wunderground v.1.15,2013-03-30 14:50:00,
2013-03-30 10:55:00,41.6,29.1,30.02,NW,315,4.0,5.0,61,0.00,,,0.00,Wunderground v.1.15,2013-03-30 14:55:00,
2013-03-30 11:05:00,41.9,28.6,30.02,NW,310,4.0,6.0,59,0.00,,,0.00,Wunderground v.1.15,2013-03-30 15:05:00,
2013-03-30 11:10:00,41.9,28.6,30.02,NW,313,5.0,6.0,59,0.00,,,0.00,Wunderground v.1.15,2013-03-30 15:10:00,
2013-03-30 11:15:00,41.9,28.6,30.02,NNW,327,6.0,9.0,59,0.00,,,0.00,Wunderground v.1.15,2013-03-30 15:15:00,
2013-03-30 11:20:00,42.2,28.0,30.01,NW,323,6.0,9.0,57,0.00,,,0.00,Wunderground v.1.15,2013-03-30 15:20:00,
2013-03-30 11:30:00,42.4,28.2,30.01,NNW,333,7.0,7.0,57,0.00,,,0.00,Wunderground v.1.15,2013-03-30 15:30:00,
2013-03-30 11:40:00,42.4,28.2,30.01,NW,316,7.0,8.0,57,0.00,,,0.00,Wunderground v.1.15,2013-03-30 15:40:00,
2013-03-30 11:45:00,42.5,27.9,30.01,NW,304,7.0,7.0,56,0.00,,,0.00,Wunderground v.1.15,2013-03-30 15:45:00,
2013-03-30 11:50:00,42.7,28.1,30.01,NW,313,7.0,7.0,56,0.00,,,0.00,Wunderground v.1.15,2013-03-30 15:50:00,
2013-03-30 11:55:00,42.9,26.5,30.01,NW,309,6.0,8.0,52,0.00,,,0.00,Wunderground v.1.15,2013-03-30 15:55:00,
2013-03-30 12:00:00,43.6,26.6,30.01,NW,321,7.0,8.0,51,0.00,,,0.00,Wunderground v.1.15,2013-03-30 16:00:00,
2013-03-30 12:05:00,43.7,26.7,30.01,WNW,296,6.0,8.0,51,0.00,,,0.00,Wunderground v.1.15,2013-03-30 16:05:00,
2013-03-30 12:15:00,43.7,26.3,30.01,North,355,6.0,6.0,50,0.00,,,0.00,Wunderground v.1.15,2013-03-30 16:15:00,
2013-03-30 12:20:00,43.6,26.6,30.00,NW,306,6.0,6.0,51,0.00,,,0.00,Wunderground v.1.15,2013-03-30 16:20:00,
2013-03-30 12:25:00,43.6,26.6,30.00,NW,304,6.0,6.0,51,0.00,,,0.00,Wunderground v.1.15,2013-03-30 16:25:00,
2013-03-30 12:35:00,43.9,26.9,30.00,NW,317,5.0,6.0,51,0.00,,,0.00,Wunderground v.1.15,2013-03-30 16:35:00,
2013-03-30 12:40:00,44.1,26.6,30.00,NW,320,4.0,6.0,50,0.00,,,0.00,Wunderground v.1.15,2013-03-30 16:40:00,
2013-03-30 12:50:00,44.0,26.5,30.00,NW,321,5.0,5.0,50,0.00,,,0.00,Wunderground v.1.15,2013-03-30 16:50:00,
2013-03-30 12:55:00,44.1,26.1,30.00,NW,309,5.0,6.0,49,0.00,,,0.00,Wunderground v.1.15,2013-03-30 16:55:00,
2013-03-30 13:05:00,45.1,25.0,29.99,NW,308,5.0,6.0,45,0.00,,,0.00,Wunderground v.1.15,2013-03-30 17:05:00,
2013-03-30 13:10:00,45.9,24.1,29.99,NW,312,4.0,6.0,42,0.00,,,0.00,Wunderground v.1.15,2013-03-30 17:10:00,
2013-03-30 13:20:00,46.3,25.0,29.99,NW,304,5.0,8.0,43,0.00,,,0.00,Wunderground v.1.15,2013-03-30 17:20:00,
2013-03-30 13:25:00,45.9,26.3,29.99,NW,311,6.0,6.0,46,0.00,,,0.00,Wunderground v.1.15,2013-03-30 17:25:00,
2013-03-30 13:30:00,45.7,25.5,29.98,North,9,5.0,6.0,45,0.00,,,0.00,Wunderground v.1.15,2013-03-30 17:30:00,
2013-03-30 13:40:00,45.0,25.4,29.98,WNW,290,5.0,7.0,46,0.00,,,0.00,Wunderground v.1.15,2013-03-30 17:40:00,
2013-03-30 13:45:00,45.4,25.8,29.98,WNW,298,6.0,6.0,46,0.00,,,0.00,Wunderground v.1.15,2013-03-30 17:45:00,
2013-03-30 13:55:00,45.5,25.4,29.98,NNW,332,5.0,6.0,45,0.00,,,0.00,Wunderground v.1.15,2013-03-30 17:55:00,
2013-03-30 14:00:00,46.0,24.7,29.98,NNW,328,5.0,5.0,43,0.00,,,0.00,Wunderground v.1.15,2013-03-30 18:00:00,
2013-03-30 14:05:00,46.2,23.8,29.98,NW,317,5.0,5.0,41,0.00,,,0.00,Wunderground v.1.15,2013-03-30 18:05:00,
2013-03-30 14:10:00,45.8,26.7,29.98,NW,311,5.0,5.0,47,0.00,,,0.00,Wunderground v.1.15,2013-03-30 18:10:00,
2013-03-30 14:15:00,45.7,25.5,29.98,NNW,331,5.0,8.0,45,0.00,,,0.00,Wunderground v.1.15,2013-03-30 18:15:00,
2013-03-30 14:20:00,45.6,26.5,29.98,NW,305,6.0,6.0,47,0.00,,,0.00,Wunderground v.1.15,2013-03-30 18:20:00,
2013-03-30 14:25:00,45.6,26.0,29.98,NW,326,5.0,6.0,46,0.00,,,0.00,Wunderground v.1.15,2013-03-30 18:25:00,
2013-03-30 14:30:00,45.5,25.9,29.98,NW,304,6.0,6.0,46,0.00,,,0.00,Wunderground v.1.15,2013-03-30 18:30:00,
2013-03-30 14:35:00,45.9,24.6,29.97,NW,315,5.0,6.0,43,0.00,,,0.00,Wunderground v.1.15,2013-03-30 18:35:00,
2013-03-30 14:40:00,46.5,25.2,29.97,NW,312,5.0,5.0,43,0.00,,,0.00,Wunderground v.1.15,2013-03-30 18:40:00,
2013-03-30 14:50:00,46.4,24.5,29.97,WNW,301,5.0,7.0,42,0.00,,,0.00,Wunderground v.1.15,2013-03-30 18:50:00,
2013-03-30 14:55:00,46.1,25.4,29.97,NW,323,5.0,8.0,44,0.00,,,0.00,Wunderground v.1.15,2013-03-30 18:55:00,
2013-03-30 15:05:00,46.1,24.8,29.97,NNW,333,5.0,9.0,43,0.00,,,0.00,Wunderground v.1.15,2013-03-30 19:05:00,
2013-03-30 15:10:00,46.0,24.2,29.97,NW,317,5.0,8.0,42,0.00,,,0.00,Wunderground v.1.15,2013-03-30 19:10:00,
2013-03-30 15:15:00,45.7,24.5,29.97,WNW,288,6.0,8.0,43,0.00,,,0.00,Wunderground v.1.15,2013-03-30 19:15:00,
2013-03-30 15:20:00,45.9,23.5,29.97,NW,315,6.0,6.0,41,0.00,,,0.00,Wunderground v.1.15,2013-03-30 19:20:00,
2013-03-30 15:25:00,46.0,24.2,29.97,NW,322,6.0,6.0,42,0.00,,,0.00,Wunderground v.1.15,2013-03-30 19:25:00,
2013-03-30 15:35:00,46.6,22.9,29.97,WNW,302,5.0,7.0,39,0.00,,,0.00,Wunderground v.1.15,2013-03-30 19:35:00,
2013-03-30 15:40:00,46.8,21.9,29.97,NNW,327,5.0,6.0,37,0.00,,,0.00,Wunderground v.1.15,2013-03-30 19:40:00,
2013-03-30 15:50:00,46.8,22.5,29.97,WNW,299,6.0,6.0,38,0.00,,,0.00,Wunderground v.1.15,2013-03-30 19:50:00,
2013-03-30 15:55:00,46.4,23.9,29.97,NW,323,5.0,6.0,41,0.00,,,0.00,Wunderground v.1.15,2013-03-30 19:55:00,
2013-03-30 16:00:00,46.3,23.9,29.97,NW,315,4.0,4.0,41,0.00,,,0.00,Wunderground v.1.15,2013-03-30 20:00:00,
2013-03-30 16:10:00,46.5,22.2,29.97,NW,310,3.0,5.0,38,0.00,,,0.00,Wunderground v.1.15,2013-03-30 20:10:00,
2013-03-30 16:15:00,47.1,22.8,29.97,NNW,346,4.0,5.0,38,0.00,,,0.00,Wunderground v.1.15,2013-03-30 20:15:00,
2013-03-30 16:20:00,47.3,22.9,29.97,WNW,293,5.0,5.0,38,0.00,,,0.00,Wunderground v.1.15,2013-03-30 20:20:00,
2013-03-30 16:25:00,46.7,23.6,29.97,NW,312,5.0,5.0,40,0.00,,,0.00,Wunderground v.1.15,2013-03-30 20:25:00,
2013-03-30 16:30:00,47.1,22.1,29.97,NW,321,5.0,5.0,37,0.00,,,0.00,Wunderground v.1.15,2013-03-30 20:30:00,
2013-03-30 16:35:00,47.3,24.8,29.97,NW,321,3.0,5.0,41,0.00,,,0.00,Wunderground v.1.15,2013-03-30 20:35:00,
2013-03-30 16:40:00,46.9,25.0,29.97,NNW,339,2.0,5.0,42,0.00,,,0.00,Wunderground v.1.15,2013-03-30 20:40:00,
2013-03-30 16:45:00,46.4,25.6,29.97,NNW,339,2.0,5.0,44,0.00,,,0.00,Wunderground v.1.15,2013-03-30 20:45:00,
2013-03-30 16:55:00,46.7,21.8,29.97,NW,304,3.0,5.0,37,0.00,,,0.00,Wunderground v.1.15,2013-03-30 20:55:00,
2013-03-30 17:00:00,46.8,23.7,29.97,NW,319,4.0,4.0,40,0.00,,,0.00,Wunderground v.1.15,2013-03-30 21:00:00,
2013-03-30 17:05:00,46.4,22.8,29.97,NW,311,3.0,5.0,39,0.00,,,0.00,Wunderground v.1.15,2013-03-30 21:05:00,
2013-03-30 17:10:00,46.5,24.0,29.97,WNW,300,2.0,5.0,41,0.00,,,0.00,Wunderground v.1.15,2013-03-30 21:10:00,
2013-03-30 17:15:00,46.3,23.9,29.97,WNW,300,2.0,5.0,41,0.00,,,0.00,Wunderground v.1.15,2013-03-30 21:15:00,
2013-03-30 17:20:00,45.9,23.5,29.97,WNW,284,2.0,5.0,41,0.00,,,0.00,Wunderground v.1.15,2013-03-30 21:20:00,
2013-03-30 17:25:00,45.4,24.2,29.97,NW,317,2.0,6.0,43,0.00,,,0.00,Wunderground v.1.15,2013-03-30 21:25:00,
2013-03-30 17:30:00,45.3,24.1,29.98,NW,310,3.0,5.0,43,0.00,,,0.00,Wunderground v.1.15,2013-03-30 21:30:00,
2013-03-30 17:35:00,45.2,25.1,29.98,NNW,340,3.0,5.0,45,0.00,,,0.00,Wunderground v.1.15,2013-03-30 21:35:00,
2013-03-30 17:40:00,44.7,26.2,29.98,NNW,339,2.0,5.0,48,0.00,,,0.00,Wunderground v.1.15,2013-03-30 21:40:00,
2013-03-30 17:50:00,44.7,24.6,29.98,WSW,254,3.0,5.0,45,0.00,,,0.00,Wunderground v.1.15,2013-03-30 21:50:00,
2013-03-30 18:00:00,45.2,24.6,29.98,West,279,3.0,5.0,44,0.00,,,0.00,Wunderground v.1.15,2013-03-30 22:00:00,
2013-03-30 18:05:00,45.5,24.3,29.99,WNW,300,4.0,6.0,43,0.00,,,0.00,Wunderground v.1.15,2013-03-30 22:05:00,
2013-03-30 18:10:00,45.5,25.9,29.99,NW,311,4.0,4.0,46,0.00,,,0.00,Wunderground v.1.15,2013-03-30 22:10:00,
2013-03-30 18:15:00,45.0,24.9,29.99,NW,321,4.0,5.0,45,0.00,,,0.00,Wunderground v.1.15,2013-03-30 22:15:00,
2013-03-30 18:25:00,44.2,25.2,29.99,NW,306,4.0,5.0,47,0.00,,,0.00,Wunderground v.1.15,2013-03-30 22:25:00,
2013-03-30 18:30:00,43.9,24.4,29.99,WNW,299,4.0,4.0,46,0.00,,,0.00,Wunderground v.1.15,2013-03-30 22:30:00,
2013-03-30 18:35:00,43.9,23.9,30.00,NW,310,4.0,5.0,45,0.00,,,0.00,Wunderground v.1.15,2013-03-30 22:35:00,
2013-03-30 18:40:00,44.1,23.6,30.00,NW,319,5.0,5.0,44,0.00,,,0.00,Wunderground v.1.15,2013-03-30 22:40:00,
2013-03-30 18:45:00,43.7,23.2,30.00,NW,313,4.0,5.0,44,0.00,,,0.00,Wunderground v.1.15,2013-03-30 22:45:00,
2013-03-30 18:50:00,43.4,23.4,30.00,NNW,331,2.0,5.0,45,0.00,,,0.00,Wunderground v.1.15,2013-03-30 22:50:00,
2013-03-30 19:05:00,43.2,24.3,30.00,WNW,292,1.0,1.0,47,0.00,,,0.00,Wunderground v.1.15,2013-03-30 23:05:00,
2013-03-30 19:10:00,43.3,22.8,30.01,NW,314,1.0,5.0,44,0.00,,,0.00,Wunderground v.1.15,2013-03-30 23:10:00,
2013-03-30 19:15:00,43.0,23.1,30.01,NW,314,1.0,5.0,45,0.00,,,0.00,Wunderground v.1.15,2013-03-30 23:15:00,
2013-03-30 19:20:00,42.6,23.8,30.01,NW,314,1.0,5.0,47,0.00,,,0.00,Wunderground v.1.15,2013-03-30 23:20:00,
2013-03-30 19:25:00,42.1,21.7,30.01,NW,314,1.0,1.0,44,0.00,,,0.00,Wunderground v.1.15,2013-03-30 23:25:00,
2013-03-30 19:35:00,41.7,23.4,30.01,NW,314,0.0,5.0,48,0.00,,,0.00,Wunderground v.1.15,2013-03-30 23:35:00,
2013-03-30 19:40:00,41.4,20.5,30.01,NW,314,0.0,5.0,43,0.00,,,0.00,Wunderground v.1.15,2013-03-30 23:40:00,
2013-03-30 19:45:00,41.3,19.9,30.01,NW,314,0.0,5.0,42,0.00,,,0.00,Wunderground v.1.15,2013-03-30 23:45:00,
2013-03-30 19:50:00,41.2,20.4,30.01,NW,314,0.0,5.0,43,0.00,,,0.00,Wunderground v.1.15,2013-03-30 23:50:00,
2013-03-30 20:00:00,41.3,20.5,30.02,NW,314,0.0,5.0,43,0.00,,,0.00,Wunderground v.1.15,2013-03-31 00:00:00,
2013-03-30 20:10:00,41.9,18.1,30.02,NW,314,0.0,5.0,38,0.00,,,0.00,Wunderground v.1.15,2013-03-31 00:10:00,
2013-03-30 20:15:00,42.0,22.2,30.03,NW,314,0.0,5.0,45,0.00,,,0.00,Wunderground v.1.15,2013-03-31 00:15:00,
2013-03-30 20:20:00,40.8,24.1,30.03,NW,314,0.0,5.0,51,0.00,,,0.00,Wunderground v.1.15,2013-03-31 00:20:00,
2013-03-30 20:25:00,39.8,23.1,30.03,NW,314,0.0,5.0,51,0.00,,,0.00,Wunderground v.1.15,2013-03-31 00:25:00,
2013-03-30 20:30:00,39.1,26.0,30.03,NW,314,0.0,5.0,59,0.00,,,0.00,Wunderground v.1.15,2013-03-31 00:30:00,
2013-03-30 20:40:00,38.2,23.0,30.04,NW,314,0.0,5.0,54,0.00,,,0.00,Wunderground v.1.15,2013-03-31 00:40:00,
2013-03-30 20:45:00,37.9,19.9,30.04,NW,314,0.0,5.0,48,0.00,,,0.00,Wunderground v.1.15,2013-03-31 00:45:00,
2013-03-30 20:50:00,38.3,21.3,30.04,NW,314,0.0,5.0,50,0.00,,,0.00,Wunderground v.1.15,2013-03-31 00:50:00,
2013-03-30 20:55:00,38.2,24.7,30.04,NW,314,0.0,5.0,58,0.00,,,0.00,Wunderground v.1.15,2013-03-31 00:55:00,
2013-03-30 21:05:00,36.1,23.9,30.05,NW,314,1.0,5.0,61,0.00,,,0.00,Wunderground v.1.15,2013-03-31 01:05:00,
2013-03-30 21:15:00,35.3,23.6,30.05,NW,314,0.0,5.0,62,0.00,,,0.00,Wunderground v.1.15,2013-03-31 01:15:00,
2013-03-30 21:20:00,35.3,21.6,30.05,NW,314,0.0,5.0,57,0.00,,,0.00,Wunderground v.1.15,2013-03-31 01:20:00,
2013-03-30 21:25:00,35.4,20.4,30.05,NW,314,0.0,5.0,54,0.00,,,0.00,Wunderground v.1.15,2013-03-31 01:25:00,
2013-03-30 21:30:00,35.6,21.0,30.05,NW,314,0.0,5.0,55,0.00,,,0.00,Wunderground v.1.15,2013-03-31 01:30:00,
2013-03-30 21:35:00,35.9,21.3,30.05,NW,314,1.0,5.0,55,0.00,,,0.00,Wunderground v.1.15,2013-03-31 01:35:00,
2013-03-30 21:40:00,36.2,20.7,30.06,NW,314,1.0,1.0,53,0.00,,,0.00,Wunderground v.1.15,2013-03-31 01:40:00,
2013-03-30 21:50:00,36.8,19.9,30.06,NW,314,0.0,5.0,50,0.00,,,0.00,Wunderground v.1.15,2013-03-31 01:50:00,
2013-03-30 21:55:00,37.2,22.1,30.06,NW,314,1.0,5.0,54,0.00,,,0.00,Wunderground v.1.15,2013-03-31 01:55:00,
2013-03-30 22:05:00,35.4,26.2,30.06,NW,314,0.0,5.0,69,0.00,,,0.00,Wunderground v.1.15,2013-03-31 02:05:00,
2013-03-30 22:10:00,34.4,26.0,30.06,NW,314,0.0,5.0,71,0.00,,,0.00,Wunderground v.1.15,2013-03-31 02:10:00,
2013-03-30 22:15:00,33.8,24.4,30.06,NW,314,0.0,5.0,68,0.00,,,0.00,Wunderground v.1.15,2013-03-31 02:15:00,
2013-03-30 22:25:00,33.2,26.1,30.06,NW,314,0.0,5.0,75,0.00,,,0.00,Wunderground v.1.15,2013-03-31 02:25:00,
2013-03-30 22:30:00,32.8,24.1,30.06,NW,314,0.0,5.0,70,0.00,,,0.00,Wunderground v.1.15,2013-03-31 02:30:00,
2013-03-30 22:40:00,33.0,22.9,30.06,NW,314,0.0,5.0,66,0.00,,,0.00,Wunderground v.1.15,2013-03-31 02:40:00,
2013-03-30 22:45:00,33.3,23.2,30.05,NW,314,0.0,5.0,66,0.00,,,0.00,Wunderground v.1.15,2013-03-31 02:45:00,
2013-03-30 22:50:00,33.1,25.7,30.05,NW,314,0.0,5.0,74,0.00,,,0.00,Wunderground v.1.15,2013-03-31 02:50:00,
2013-03-30 23:00:00,32.3,25.9,30.05,NW,314,0.0,5.0,77,0.00,,,0.00,Wunderground v.1.15,2013-03-31 03:00:00,
2013-03-30 23:05:00,32.0,25.6,30.05,NW,314,0.0,5.0,77,0.00,,,0.00,Wunderground v.1.15,2013-03-31 03:05:00,
2013-03-30 23:10:00,31.8,24.5,30.05,NW,314,0.0,5.0,74,0.00,,,0.00,Wunderground v.1.15,2013-03-31 03:10:00,
2013-03-30 23:15:00,31.6,24.9,30.05,NW,314,0.0,5.0,76,0.00,,,0.00,Wunderground v.1.15,2013-03-31 03:15:00,
2013-03-30 23:20:00,31.5,23.5,30.05,NW,314,0.0,5.0,72,0.00,,,0.00,Wunderground v.1.15,2013-03-31 03:20:00,
2013-03-30 23:30:00,31.3,25.2,30.06,NW,314,0.0,5.0,78,0.00,,,0.00,Wunderground v.1.15,2013-03-31 03:30:00,
2013-03-30 23:35:00,31.2,25.4,30.06,NW,314,0.0,5.0,79,0.00,,,0.00,Wunderground v.1.15,2013-03-31 03:35:00,
2013-03-30 23:40:00,30.9,23.9,30.06,NW,314,0.0,5.0,75,0.00,,,0.00,Wunderground v.1.15,2013-03-31 03:40:00,
2013-03-30 23:45:00,30.8,22.5,30.06,NW,314,0.0,5.0,71,0.00,,,0.00,Wunderground v.1.15,2013-03-31 03:45:00,
2013-03-30 23:55:00,30.9,24.5,30.06,NW,314,0.0,5.0,77,0.00,,,0.00,Wunderground v.1.15,2013-03-31 03:55:00,